www.pogodaiklimat.ru
ПОГОДА в Колумбии
Время
и дата
11:10 04.12
11:20 04.12
11:50 04.12
12:10 04.12
12:30 04.12
12:50 04.12
13:10 04.12
13:30 04.12
13:50 04.12
14:10 04.12
14:30 04.12
14:50 04.12
15:10 04.12
15:30 04.12
15:50 04.12
16:05 04.12
16:30 04.12
16:40 04.12
17:10 04.12
17:30 04.12
17:50 04.12
18:10 04.12
18:25 04.12
18:45 04.12
19:10 04.12
19:35 04.12
19:50 04.12
20:10 04.12
20:35 04.12
20:50 04.12
21:10 04.12
21:35 04.12
21:45 04.12
22:05 04.12
22:35 04.12
22:50 04.12
23:10 04.12
23:35 04.12
23:50 04.12
00:35 05.12
00:45 05.12
01:10 05.12
01:15 05.12
01:45 05.12
02:10 05.12
02:30 05.12
02:50 05.12
03:10 05.12
Ветер
(напр.,м/с)
Видим. Явления Облачность Т
(С)
Тd
(С)
f
(%)
Тe
(С)
Тes
(С)
Комфортность P
(гПа)
Po
(гПа)
Тmin
(С)
Tmax
(С)
R
(мм)
R24
(мм)
S
(см)
штиль 0 16 км 2/0 3000 m
[Ac]
+5.0 0.0 70 +4 +11 1001.5
штиль 0 16 км ясно +5.0 0.0 70 +4 +12 1001.1
штиль 0 16 км 2/2 1950 m
[Ac]
+5.0 0.0 70 +4 +11 1000.8
штиль 0 16 км ясно +5.0 +1.0 75 +4 +13 опасность
простуды
1000.1
В 3 16 км ясно +6.0 +2.0 75 +3 +8 999.2
штиль 0 16 км ясно +6.0 +2.0 75 +5 +14 опасность
простуды
999.2
штиль 0 16 км ясно +6.0 +2.0 75 +5 +12 999.2
штиль 0 16 км ясно +6.0 +2.0 75 +5 +12 998.5
штиль 0 16 км ясно +6.0 +3.0 81 +5 +12 998.5
штиль 0 16 км ясно +6.0 +3.0 81 +5 +10 998.2
штиль 0 16 км ясно +6.0 +3.0 81 +5 +10 997.8
штиль 0 16 км 2/0 2700 m
[Ac]
+6.0 +3.0 81 +5 +9 997.5
штиль 0 14 км 2/0 2100 m
[Ac]
+6.0 +3.0 81 +5 +7 997.2
штиль 0 16 км 5/0 2250 m
[Ac]
+6.0 +4.0 87 +5 +7 997.2
штиль 0 16 км 2/0 3000 m
[Ac]
+6.0 +4.0 87 +5 +7 996.5
штиль 0 16 км 8/0 2550 m
[Ac]
+6.0 +5.0 93 +5 +5 996.2
нст 2 16 км 10/0 2700 m
[Ac]
+6.0 +5.0 93 +3 +4 996.2
штиль 0 16 км 10/0 3300 m
[Ac]
+6.0 +5.0 93 +5 +5 996.8
штиль 0 16 км 10/0 2550 m
[Ac]
+6.0 +5.0 93 +5 +5 996.8
штиль 0 16 км 10/0 2400 m
[Ac]
+6.0 +5.0 93 +5 +5 996.8
штиль 0 16 км 10/0 2250 m
[Ac]
+5.0 +5.0 100 +4 +4 997.2
штиль 0 16 км 10/0 2250 m
[Ac]
+5.0 +5.0 100 +4 +4 997.2
штиль 0 16 км 10/0 2250 m
[Ac]
+6.0 +5.0 93 +5 +5 997.2
штиль 0 16 км 10/0 2400 m
[Ac]
+5.0 +5.0 100 +4 +4 996.8
ЮЗ 2 16 км 10/0 2400 m
[Ac]
+5.0 +5.0 100 +2 +2 996.5
штиль 0 16 км 10/2 90 m
[Ac]
+4.0 +4.0 100 +3 +3 996.2
штиль 0 16 км 10/2 90 m
[Ac]
+4.0 +4.0 100 +3 +3 996.2
штиль 0 16 км 10/2 1650 m
[Ac]
+4.0 +4.0 100 +3 +3 996.2
штиль 0 16 км 10/8 1650 m
[Ac]
+4.0 +3.0 93 +3 +3 996.2
штиль 0 16 км 8/8 1500 m
[Ac]
+3.0 +3.0 100 +2 +2 996.2
штиль 0 16 км 5/5 120 м +3.0 +3.0 100 +2 +2 996.2
штиль 0 16 км ясно +2.0 +2.0 100 +1 +1 996.2
штиль 0 16 км ясно +2.0 +2.0 100 +1 +1 995.8
штиль 0 14 км 2/2 1650 м +2.0 +2.0 100 +1 +1 995.8
штиль 0 6 км дымка 2/2 120 м +1.0 +1.0 100 0 0 995.8
штиль 0 6 км дымка 5/5 120 м +1.0 +1.0 100 0 0 995.5
штиль 0 8 км дымка 2/2 1470 м +1.0 +1.0 100 0 0 995.5
штиль 0 3 км дымка 2/2 1380 м +1.0 +1.0 100 0 0 994.9
штиль 0 8 км дымка 2/2 1380 м +1.0 +1.0 100 0 0 994.9
штиль 0 4 км дымка 8/8 1110 м 0.0 0.0 100 -1 -1 994.2
штиль 0 6 км дымка 8/8 60 м 0.0 0.0 100 -1 -1 994.2
штиль 0 10 км дымка 10/8 60 m
[Ac]
0.0 0.0 100 -1 -1 993.9
штиль 0 10 км дымка 10/5 60 m
[Ac]
0.0 0.0 100 -1 -1 993.9
штиль 0 14 км 10/0 2250 m
[Ac]
+1.0 +1.0 100 0 0 993.5
штиль 0 16 км 10/0 2400 m
[Ac]
+1.0 +1.0 100 0 0 993.5
штиль 0 16 км 10/0 2400 m
[Ac]
+1.0 +1.0 100 0 0 993.5
штиль 0 14 км 10/0 2400 m
[Ac]
+1.0 +2.0 100 0 0 993.2
штиль 0 16 км 10/2 1470 m
[Ac]
+2.0 +2.0 100 +1 +1 992.9
Местоположение метеостанции Maury County: широта 35.5500 долгота -87.1833 высота над уровнем моря 206 м.
В архиве по умолчанию представлена погода в Колумбии за последние 1-2 суток. Обновление информации о фактической погоде в базе происходит ежечасно! Архивные данные за месяц целиком и за предыдущие месяцы Вы можете получить, выбрав интересующий диапазон дат из раскрывающегося списка и нажав кнопку "Ввод!".
Внимание! Архив погоды МЕТАР в базе сайта по станциям, не включенным в климатический монитор, хранится не более 60 дней. Нет смысла пытаться выбрать более раннюю дату.
*Определитесь, кто Вы:
Внимание! Время в таблицах - местное (без учета летнего времени). Для получения всемирного времени необходимо вычесть поправку, которая равна -6 ч.
Смотрите также архив погоды в соседних городах и на ближайших метеорологических станциях:
Партнеры нашего сайта:      
Пояснения к столбцам:
  • Ветер - указаны скорость ветра в м/с - средняя за 10 мин, порывы в срок и между сроками (в фигурных скобках) и направление, откуда дует ветер: С - северный,
  • СВ - северо-восточный, В - восточный, ЮВ - юго-восточный, Ю - южный, ЮЗ - юго-западный, З - западный, СЗ - северо-западный.
  • Видимость - горизонтальная дальность видимости в метрах или километрах. При видимости от 1 до 10 км при отсутствии осадков обычно наблюдается дымка, при ухудшении видимости до 1 км и менее - туман. В сухую погоду видимость может ухудшаться дымом, пылью или мглою.
  • Явления - указаны атмосферные явления, наблюдавшиеся в срок или в последний час перед сроком; фигурными скобками обозначены явления, наблюдавшиеся между сроками (за 1-3 часа до срока); квадратными скобками обозначены град или гололедные отложения с указанием их диаметра в мм.
  • Облачность - указаны через наклонную черту общая и нижняя облачность в баллах и высота нижней границы облаков в метрах; квадратными скобками обозначены формы облаков: Ci - перистые, Cs - перисто-слоистые, Cc - перисто-кучевые, Ac - высококучевые, As - высокослоистые, Sc - слоисто-кучевые, Ns - слоисто-дождевые, Cu - кучевые, Cb - кучево-дождевые. Подробнее классификацию облаков см. в Атласе облаков (PDF).
  • T - Температура воздуха - температура, измеренная на высоте 2 м над землей.
  • Td - Температура точки росы - температура, при понижении до которой содержащийся в воздухе водяной пар достигнет насыщения.
  • f - Относительная влажность воздуха - влажноcть воздуха, измеренная на высоте 2 м над землей.
  • Te - Эффективная температура - температура, которую ощущает одетый по сезону человек в тени. Характеристика душности погоды. При расчете учитывается влияние влажности воздуха и скорости ветра на теплоощущения человека.
  • Tes - Эффективная температура на солнце - температура, которую ощущает человек, с поправкой на солнечный нагрев. Характеристика знойности погоды. Зависит от высоты солнца над горизонтом, облачности и скорости ветра. Ночью, в пасмурную погоду, а также при ветре 12 м/с и более поправка равна нулю.
  • P - Атмосферное давление - приведенное к уровню моря атмосферное давление.
  • Po - Атмосферное давление - измеренное на уровне метеостанции атмосферное давление.
  • Tmin - Минимальная температура - минимум температуры воздуха на высоте 2 м над землей.
  • Tmax - Максимальная температура - максимум температуры воздуха на высоте 2 м над землей.
  • R - Количество осадков - Количество выпавших осадков за период времени, мм. При наведении курсора мыши на число - период времени, за который выпало указанное количество осадков.
  • R24 - Количество осадков - Количество выпавших осадков за 24 часа, мм.
  • S - Снежный покров - Высота снежного покрова, см. При наведении курсора мыши на число - состояние снежного покрова и степень покрытия местности в баллах.